User: anonymous   Login
Location: Unspecified
(0.0000°N, 0.0000°E)
Time: 07:16:45
(UTC+00:00)
Language:

GALASSIA - Orbit

View from above orbital plane
View from above orbital plane
View from above satellite
View from above satellite

Ground track
Ground track

The orbit data is extracted from the following two-line orbital elements,

1 41170U 15077E   17177.14462947 +.00001684 +00000-0 +56532-4 0  9997
2 41170 014.9887 100.3075 0013549 158.5934 201.4955 15.12100463084433
Epoch (UTC): 26 June 2017 03:28:15
Eccentricity: 0.0013549
inclination: 14.9887°
perigee height: 520 km
apogee height: 539 km
right ascension of ascending node: 100.3075°
argument of perigee: 158.5934°
revolutions per day: 15.12100463
mean anomaly at epoch: 201.4955°
orbit number at epoch: 8443

The dashed part of the orbit path shows where the satellite is in the earth's shadow,  

DLR